sat.trackr.live / text

‹ back to catalog

TWILIGHT-1 OBJECT B

NORAD 67364 · 2026-004B

PAYLOAD ACTIVE UNKNOWN

§ Identity

Operator
Country
TBD
Launch date
2026-01-11
Launch site
AFWTR
Launch vehicle
Mass (kg)
RCS (m²)

Purposes: earth_obs

External: N2YO · Heavens-Above · Gunter

§ Orbital elements

Epoch: 2026-09-19T22:01:28.636320Z

Period
96.78 min
Inclination
97.8136°
Eccentricity
0.0008727
Mean motion
14.87968642 rev/d
Perigee alt
598.2 km
Apogee alt
610.4 km
Semi-major
6,982.4 km
B*
1.1867e-4
RAAN
260.0446°
Arg perigee
168.0532°
Mean anomaly
192.0893°
Rev number
3,737

§ Raw data

TWILIGHT-1 OBJECT B1 67364U 26004B   26262.91769255  .00001034  00000+0  11867-3 0  99932 67364  97.8136 260.0446 0008727 168.0532 192.0893 14.87968642 37370

JSON: /api/v1/satellites/67364 · /tle

For live sub-satellite position, see the globe view (requires WebGL).

§ Visibility from observer

Set your observer location to see the next 7 days of passes ≥ 10°. The values pass through the URL so the page stays shareable.

No JS? Fill the form by hand. The geolocation button needs JavaScript.